Regional Weather Roundup
Issued by NWS Mt. Holly, NJ

Home | Current Version | Previous Version | Text Only | Print | Product List | Glossary On
Versions: 1 2 3 4 5 6 7 8 9 10 11 12 13 14 15 16 17 18 19 20 21 22 23 24 25 26 27 28 29 30 31 32 33 34 35 36 37 38 39 40 41 42 43 44 45 46 47 48
000
ASUS41 KPHI 071512
RWRPHI

REGIONAL WEATHER ROUNDUP
NATIONAL WEATHER SERVICE MOUNT HOLLY NJ
1100 AM EDT TUE JUL 07 2015

NOTE:  "FAIR" INDICATES FEW OR NO CLOUDS BELOW 12,000 FEET WITH NO
SIGNIFICANT WEATHER AND/OR OBSTRUCTIONS TO VISIBILITY.

 * = STATION DOES NOT REPORT PRECIPITATION (E.G. RAIN, SNOW, ETC.)
        OR FOG.

NJZ015>026-071600-
SOUTHERN NEW JERSEY

CITY           SKY/WX    TMP DP  RH WIND       PRES   REMARKS
POMONA         MOSUNNY   85  72  65 S9        30.05  HX  91
RIO GRANDE*    PTSUNNY   84  73  70 SW10      30.07F HX  91
MILLVILLE      PTSUNNY   82  74  76 W7        30.05F
WRIGHTSTOWN    MOSUNNY   84  73  69 SW7       30.01F HX  91
MOUNT HOLLY    PTSUNNY   82  71  69 VRB5      30.03F
TRENTON        MOSUNNY   81  71  71 SW6       30.04S

$$
NJZ001>014-071600-
NORTHERN NEW JERSEY

CITY           SKY/WX    TMP DP  RH WIND       PRES   REMARKS
SUSSEX         MOSUNNY   80  70  71 S6        30.02F
ANDOVER*         N/A     79  71  76 SW8       30.04F
MORRISTOWN     PTSUNNY   86  75  70 SW9       30.03F HX  95
NEWARK         PTSUNNY   84  71  65 SW7       30.02F
TETERBORO      PTSUNNY   82  71  69 S8        30.01F
CALDWELL       MOSUNNY   82  69  64 SW7       30.03F
SOMERVILLE     MOSUNNY   82  72  71 MISG      30.02F
ALLAIRE*       MOSUNNY   82  70  65 SW9       30.05S
TOMS RIVER*    PTSUNNY   84  72  65 SW7       30.04F

$$
PAZ043-044-047-054-055-060>062-066>071-071600-
EASTERN PENNSYLVANIA

CITY           SKY/WX    TMP DP  RH WIND       PRES   REMARKS
PHILADELPHIA   MOSUNNY   81  71  71 SW9       30.04F
NORTH PHILA    MOSUNNY   84  69  60 W10       30.05F
BLUE BELL      MOSUNNY   81  73  78 SW3       30.04F
DOYLESTOWN     PTSUNNY   78  71  79 SW7       30.04F
QUAKERTOWN*    PTSUNNY   79  72  78 S9        30.06S
POTTSTOWN      PTSUNNY   78  71  79 CALM      30.05F
LANCASTER      PTSUNNY   79  71  76 W7        30.04S
COATESVILLE    SUNNY     79  73  83 CALM      30.06F
READING        PTSUNNY   81  71  71 S3        30.02F
ALLENTOWN      PTSUNNY   82  71  69 S7        30.03S
MOUNT POCONO   CLOUDY    74  67  78 SW3       30.08F
HAZLETON       PTSUNNY   79  70  73 SW5       30.10S
WILKES BARRE   CLOUDY    79  69  71 SW9       30.03S

$$
DEZALL-MDZ008-012-015-019-020-071600-
DELAWARE AND EASTERN MARYLAND

CITY           SKY/WX    TMP DP  RH WIND       PRES   REMARKS
WILMINGTON     MOSUNNY   82  72  71 W3        30.05F
DOVER          PTSUNNY   82  75  77 VRB7      30.04F
GEORGETOWN     MOSUNNY   84  73  69 W12       30.06F HX  90
EASTON         MOSUNNY   84  75  74 W7        30.09F HX  92
ABERDEEN       MOSUNNY   84  72  65 SW9       30.05S
PATUXENT       SUNNY     82  71  69 SW7       30.06F
OCEAN CITY     MOSUNNY   85  73  67 W12       30.06F HX  91
WALLOPS ISLAND MOSUNNY   84  72  67 SW10      30.09S
CAMBRIDGE      SUNNY     82  70  65 SW6       30.05F
SALISBURY      MOSUNNY   83  72  69 SW9       30.07S

$$
PAZ001-021-NYZ056-072-MDZ011-DCZ001-071600-
OTHER NEARBY LOCATIONS

CITY           SKY/WX    TMP DP  RH WIND       PRES   REMARKS
HARRISBURG     PTSUNNY   81  71  71 S3        30.03S
STATE COLLEGE  MOSUNNY   75  68  78 W6        30.06S
WILLIAMSPORT   CLOUDY    76  70  82 CALM      30.01S
BINGHAMTON     CLOUDY    73  69  87 S9        30.03R
NEW YORK CITY  PTSUNNY   82  71  69 SW3       30.05F
BALTIMORE      MOSUNNY   83  71  67 W7        30.05S
WASHINGTON DC  MOSUNNY   83  74  74 S8        30.06S

$$


USA.gov is the U.S. government's official web portal to all federal, state and local government web resources and services.